Change the Weather History Date:

Wednesday, August 1, 2012

  Actual Average Record
Temperature  
Mean Temperature 74 °F -  
Max Temperature 88 °F 79 °F 97 °F (1988)
Min Temperature 61 °F 61 °F 48 °F (1985)
Cooling Degree Days 9    
Growing Degree Days 24 (Base 50)    
Moisture  
Dew Point 64 °F    
Average Humidity 82    
Maximum Humidity 100    
Minimum Humidity 43    
Precipitation  
Precipitation 0.01 in - - ()
Sea Level Pressure  
Sea Level Pressure 29.95 in    
Wind  
Wind Speed 2 mph (SW)    
Max Wind Speed 9 mph    
Max Gust Speed -    
Visibility 5 miles    
Events Fog    
Averages and records for this station are not official NWS values.
T = Trace of Precipitation, MM = Missing Value Source: NWS Daily Summary

Daily Weather History Graph

Daily Weather History Graph

Search for Another Location

Airport or City:

Trip Planner

Search our weather history database for the weather conditions in past years. The results will help you decide how hot, cold, wet, or windy it might be!

Date:

Astronomy

Aug. 01, 2012 Rise Set
Actual Time 5:44 AM CDT 8:11 PM CDT
Civil Twilight 5:12 AM CDT 8:43 PM CDT
Nautical Twilight 4:32 AM CDT 9:22 PM CDT
Astronomical Twilight 3:48 AM CDT 10:06 PM CDT
Moon 7:39 PM CDT 5:13 AM CDT
Length of Visible Light 15h 30m
Length of Day
14h 27m
Full, 100% of the Moon is Illuminated
Aug 1
Full
Aug 1
Full
Aug 9
Last Quarter
Aug 17
New
Aug 24
First Quarter

Hourly Weather History & Observations

Time (CDT) Temp. Heat Index Dew Point Humidity Pressure Visibility Wind Dir Wind Speed Gust Speed Precip Events Conditions
12:53 AM 63.0 °F - 62.1 °F 97% 29.96 in 6.0 mi Calm Calm - N/A   Clear
1:53 AM 64.9 °F - 63.0 °F 93% 29.96 in 4.0 mi Calm Calm - N/A   Partly Cloudy
2:02 AM 64.4 °F - 62.6 °F 94% 29.97 in 1.5 mi Calm Calm - N/A   Clear
2:30 AM 64.4 °F - 62.6 °F 94% 29.97 in 0.5 mi Calm Calm - N/A Fog Fog
2:42 AM 62.6 °F - 62.6 °F 100% 29.97 in 1.8 mi WNW 3.5 mph - N/A   Partly Cloudy
2:45 AM 62.6 °F - 62.6 °F 100% 29.97 in 3.0 mi WNW 3.5 mph - N/A   Scattered Clouds
2:53 AM 63.0 °F - 62.1 °F 97% 29.97 in 5.0 mi WNW 3.5 mph - N/A   Mostly Cloudy
3:33 AM 64.4 °F - 62.6 °F 94% 29.97 in 2.0 mi Calm Calm - N/A   Clear
3:38 AM 64.4 °F - 62.6 °F 94% 29.98 in 0.8 mi Calm Calm - N/A   Clear
3:49 AM 62.6 °F - 62.6 °F 100% 29.98 in 0.2 mi Calm Calm - N/A Fog Fog
3:53 AM 63.0 °F - 63.0 °F 100% 29.97 in 0.2 mi Calm Calm - N/A Fog Fog
4:02 AM 64.4 °F - 62.6 °F 94% 29.98 in 1.0 mi NW 3.5 mph - 0.01 in   Clear
4:06 AM 64.4 °F - 62.6 °F 94% 29.98 in 3.0 mi Calm Calm - 0.01 in   Clear
4:09 AM 62.6 °F - 62.6 °F 100% 29.98 in 1.8 mi Calm Calm - 0.01 in   Clear
4:16 AM 62.6 °F - 62.6 °F 100% 29.98 in 0.2 mi Calm Calm - 0.01 in Fog Fog
4:28 AM 62.6 °F - 62.6 °F 100% 29.98 in 1.0 mi Calm Calm - 0.01 in   Clear
4:40 AM 62.6 °F - 60.8 °F 94% 29.98 in 0.5 mi WNW 3.5 mph - 0.01 in Fog Fog
4:53 AM 63.0 °F - 62.1 °F 97% 29.97 in 0.5 mi Calm Calm - 0.01 in Fog Fog
5:23 AM 62.6 °F - 60.8 °F 94% 29.98 in 0.2 mi Calm Calm - N/A Fog Fog
5:53 AM 61.0 °F - 61.0 °F 100% 29.97 in 0.2 mi Calm Calm - N/A Fog Fog
6:41 AM 64.4 °F - 62.6 °F 94% 29.98 in 1.0 mi Calm Calm - N/A   Clear
6:49 AM 66.2 °F - 64.4 °F 94% 29.98 in 4.0 mi Calm Calm - N/A   Clear
6:53 AM 66.0 °F - 64.9 °F 96% 29.97 in 4.0 mi Calm Calm - N/A   Clear
7:53 AM 72.0 °F - 68.0 °F 87% 29.97 in 8.0 mi Calm Calm - N/A   Clear
8:53 AM 75.9 °F - 66.9 °F 74% 29.98 in 10.0 mi WSW 5.8 mph - N/A   Clear
9:53 AM 79.0 °F - 64.9 °F 62% 29.96 in 10.0 mi SSW 4.6 mph - N/A   Clear
10:53 AM 79.0 °F - 64.9 °F 62% 29.95 in 10.0 mi WSW 5.8 mph - N/A   Partly Cloudy
11:53 AM 82.9 °F 84.6 °F 64.9 °F 54% 29.95 in 10.0 mi SW 8.1 mph - N/A   Clear
12:53 PM 84.0 °F 86.3 °F 66.0 °F 55% 29.95 in 10.0 mi Variable 6.9 mph - N/A   Partly Cloudy
1:53 PM 86.0 °F 87.3 °F 64.0 °F 48% 29.93 in 10.0 mi SW 8.1 mph - N/A   Partly Cloudy
2:53 PM 87.1 °F 88.9 °F 64.9 °F 48% 29.92 in 10.0 mi West 8.1 mph - N/A   Clear
3:53 PM 87.1 °F 87.8 °F 63.0 °F 44% 29.89 in 10.0 mi SSW 8.1 mph - N/A   Clear
4:53 PM 87.1 °F 87.5 °F 62.1 °F 43% 29.88 in 10.0 mi SSW 9.2 mph - N/A   Clear
5:53 PM 84.0 °F 87.0 °F 68.0 °F 58% 29.89 in 10.0 mi SE 5.8 mph - N/A   Clear
6:53 PM 81.0 °F 83.3 °F 66.9 °F 62% 29.88 in 10.0 mi SSE 5.8 mph - N/A   Clear
7:53 PM 77.0 °F - 66.0 °F 69% 29.86 in 10.0 mi SSE 8.1 mph - N/A   Clear
8:53 PM 75.0 °F - 66.0 °F 73% 29.85 in 10.0 mi South 9.2 mph - N/A   Clear
9:53 PM 73.9 °F - 66.9 °F 79% 29.87 in 10.0 mi South 9.2 mph - N/A   Clear
10:53 PM 73.0 °F - 66.0 °F 79% 29.86 in 10.0 mi South 9.2 mph - N/A   Clear